軌道要素
Epoch 2014 July 2.0 TT = JDT 2456840.5
T 2014 June 20.00610 TT MPC
q 1.7085849 (2000.0) P Q
n 0.03869320 Peri. 195.47508 -0.88411461 -0.40565653
a 8.6572436 Node 41.94168 -0.38338595 +0.91348047
e 0.8026410 Incl. 159.69713 -0.26712650 +0.03156290
P 25.5
From 100 observations 2014 May 9-June 22, mean residual 0".6.
|